Location: Drocourt
(49.0571°N, 1.7669°E)
Time: 18:40:25
(UTC+00:00)

S-56A Canister/Altair - Pass Details

Date: 19 April 2024
Orbit: 638 x 2488 km, 38.9° (Epoch: 20 May)

Event Time Altitude Azimuth Distance (km) Brightness Sun altitude
Rises 21:30:31 0° 268° (W) 4,080 11.8 -21.8°
Reaches altitude 10° 21:33:18 10° 259° (WSW) 3,352 11.1 -22.1°
Maximum altitude 21:40:46 32° 200° (SSW) 2,598 9.9 -22.8°
Enters shadow 21:43:40 29° 174° (S) 2,951 10.0 -23.1°
Drops below altitude 10° 21:50:59 10° 144° (SE) 4,630 - -23.8°
Sets 21:55:38 0° 136° (SE) 5,858 - -24.2°
